Home   Weather   Mesa   Past weeks

Flag for USA Past Weather in Mesa, Arizona, USA — Yesterday and Last 2 Weeks

Now
50 °F

Overcast.


Feels Like: 48 °F
Forecast: 48 / 56 °F
Wind: 6 mph from Southeast

Location: Phoenix–Mesa Gateway Airport

Current Time: Jan 23, 2017 at 8:12:53 am

Latest Report: Jan 23, 2017 at 6:50 am


Visibility: 20 mi

Pressure: 29.92 "Hg

Humidity: 67%

Dew Point: 39 °F

Location of MesaLocation

Past Weather in Mesa — Graph

°F

Mesa Temperature Yesterday

Maximum temperature yesterday: 59 °F (at 4:48 pm)
Minimum temperature yesterday: 39 °F (at 3:35 am)
Average temperature yesterday: 47 °F

High & Low Weather Summary for the Past Weeks

 TemperatureHumidityPressure
High72 °F (Jan 8, 3:47 pm)100% (Jan 15, 12:15 am)30.35 "Hg (Jan 15, 12:15 am)
Low39 °F (Jan 17, 7:52 am)29% (Jan 8, 1:55 pm)29.49 "Hg (Jan 21, 12:55 am)
Average51 °F73%29.99 "Hg
* Reported Jan 8 6:50 am — Jan 23 6:50 am, Mesa, Weather by CustomWeather, © 2017

Note: Actual official high and low records may vary slightly from our data, if they occured in-between our weather recording intervals... More about our weather records

Advertising

Mesa Weather History for the Previous 24 Hours

Scroll right to see more
 ConditionsComfort  
Time TempWeatherWind HumidityBarometerVisibility
6:50 am
Mon, Jan 23
50 °FOvercast.6 mph67%29.92 "Hg20 mi
5:47 am52 °FPartly cloudy.8 mph62%29.93 "Hg20 mi
4:47 am52 °FMostly cloudy.10 mph67%29.95 "Hg10 mi
4:35 am50 °FOvercast.8 mph76%29.96 "Hg10 mi
4:15 am50 °FOvercast.6 mph76%29.96 "Hg10 mi
3:55 am50 °FOvercast.6 mph71%29.96 "Hg10 mi
3:35 am50 °FOvercast.6 mph76%29.96 "Hg10 mi
3:15 am50 °FOvercast.7 mph71%29.96 "Hg10 mi
2:55 am50 °FOvercast.7 mph71%29.96 "Hg10 mi
2:35 am50 °FOvercast.8 mph71%29.97 "Hg10 mi
2:15 am50 °FOvercast.8 mph71%29.98 "Hg10 mi
1:55 am48 °FMostly cloudy.8 mph76%29.99 "Hg10 mi
1:35 am48 °FOvercast.9 mph76%30.00 "Hg10 mi
1:15 am50 °FOvercast.8 mph67%30.02 "Hg10 mi
12:55 am50 °FOvercast.9 mph67%30.03 "Hg10 mi
12:35 am50 °FOvercast.10 mph62%30.05 "Hg10 mi
12:15 am50 °FOvercast.9 mph67%30.06 "Hg10 mi
11:47 pm
Sun, Jan 22
48 °FOvercast.7 mph76%30.06 "Hg20 mi
10:55 pm46 °FOvercast.8 mph82%30.05 "Hg20 mi
9:55 pm46 °FPassing clouds.7 mph82%30.05 "Hg20 mi
8:50 pm50 °FPassing clouds.6 mph71%30.07 "Hg20 mi
7:55 pm52 °FPassing clouds.5 mph72%30.07 "Hg20 mi
6:50 pm55 °FPassing clouds.5 mph59%30.08 "Hg20 mi
5:49 pm57 °FPassing clouds.5 mph51%30.08 "Hg20 mi
4:48 pm59 °FBroken clouds.9 mph45%30.09 "Hg45 mi
3:52 pm57 °FMore clouds than sun.6 mph48%30.11 "Hg20 mi
2:48 pm57 °FMore clouds than sun.2 mph48%30.14 "Hg20 mi
1:51 pm57 °FMore clouds than sun.7 mph48%30.14 "Hg45 mi
12:55 pm57 °FMore clouds than sun.9 mph48%30.18 "Hg20 mi
11:53 am55 °FPartly sunny.12 mph51%30.22 "Hg20 mi
10:54 am55 °FPartly sunny.9 mph100%30.23 "Hg30 mi
9:47 am50 °FBroken clouds.7 mph76%30.23 "Hg20 mi
8:47 am45 °FBroken clouds.7 mph81%30.22 "Hg20 mi
Weather by CustomWeather, © 2017

See weather overviewHow to use our weather pages